Lid_Strength_Index
2 2 2 2 2 2 2 2 2 2 2 2 2 2 2 2 2 2 4 2 1 -1 0 1 1 2 3 5 4 4 6 7 7 7 6 4 5 4 3 4 4 3 3 2 1
3 3 2 2 2 2 2 3 3 3 2 2 2 2 2 2 3 3 -1 -2 -2 -2 3 2 3 2 4 4 3 5 6 6 5 5 5 4 4 4 4 4 4 4 2 2 1
3 3 3 3 2 2 2 3 3 3 2 2 2 2 2 2 2 2 -2 -2 -2 -1 2 2 2 3 4 3 3 4 6 5 6 5 4 4 5 4 4 5 4 4 3 2 2
3 3 3 3 3 2 2 2 2 3 2 2 2 2 2 1 7 1 -3 -3 -3 0 1 3 3 4 5 5 3 5 4 5 4 4 5 5 4 4 5 4 3 3 2 2 2
3 3 3 3 3 3 2 2 2 2 2 2 2 2 2 3 3 0 -3 -2 1 1 3 4 4 4 5 4 4 5 4 4 4 4 5 5 6 6 4 3 2 2 2 2 2
3 3 4 3 3 3 3 3 3 3 2 2 2 2 3 5 -0 -1 2 1 1 2 3 3 4 3 4 4 5 4 4 4 4 4 4 6 6 6 4 3 3 3 2 2 2
3 3 4 4 4 3 3 3 3 3 3 2 2 2 3 4 -0 -1 1 1 1 2 4 2 2 4 3 4 3 4 5 5 4 4 4 4 6 6 3 3 4 3 2 2 2
3 3 4 4 4 3 3 3 2 3 2 2 2 2 4 2 -1 0 1 2 1 1 2 1 1 3 3 3 4 5 5 7 5 4 4 4 7 4 3 3 4 3 3 3 2
3 4 4 4 4 3 3 3 2 2 2 2 1 2 4 2 1 0 0 2 2 2 2 2 2 3 3 5 6 6 8 7 7 4 5 5 7 4 3 3 4 4 3 3 3
4 4 4 4 4 3 3 3 1 2 1 1 1 4 3 4 2 0 0 1 3 3 3 3 4 5 5 6 9 8 8 7 7 5 5 6 6 5 4 4 4 4 4 4 4
4 4 4 4 4 4 2 1 2 3 2 3 3 4 4 2 1 1 1 2 3 4 6 4 6 7 6 5 5 6 7 7 6 5 6 6 6 5 4 4 4 4 5 4 4
4 4 3 4 4 3 1 2 3 3 5 2 2 2 2 1 4 2 1 3 4 6 4 5 7 5 5 5 6 6 7 7 6 5 6 6 6 5 5 5 4 5 5 5 4
5 4 4 4 4 2 1 2 1 2 5 4 3 3 3 2 4 3 2 3 5 6 6 7 6 5 5 6 7 7 7 7 7 6 5 6 7 6 5 5 5 5 4 4 4
5 4 4 5 4 1 2 1 1 1 7 6 6 5 3 3 5 2 1 3 4 6 5 6 5 6 6 7 6 8 6 6 7 8 10 6 11 7 6 6 6 5 5 5 4
5 4 4 5 0 2 2 1 1 1 13 5 5 2 3 4 4 4 1 3 5 6 5 7 6 6 7 6 5 7 5 6 7 8 8 8 9 8 6 8 7 6 5 4 4
5 5 4 2 0 1 1 1 2 8 12 7 5 5 6 5 4 3 3 2 3 5 5 6 4 5 5 5 5 5 6 6 6 8 11 9 9 9 7 7 6 5 5 5 4
5 5 3 1 2 0 0 2 8 10 6 8 7 6 6 6 6 5 6 6 7 9 8 6 6 5 4 6 5 6 7 11 12 12 12 8 9 8 6 5 5 6 5 4 4
6 6 2 0 0 0 1 5 11 8 8 5 6 6 7 6 6 6 6 7 5 6 8 9 10 6 5 6 7 7 7 10 14 13 11 8 10 8 5 4 4 4 4 4 4
7 -0 -1 1 1 0 3 9 8 7 6 7 7 8 7 6 6 6 6 7 6 5 9 9 9 5 5 5 5 7 9 6 9 9 11 10 8 7 6 6 5 5 5 5 4
2 1 2 2 -0 1 5 9 7 5 6 6 8 7 8 7 7 7 7 6 6 5 4 7 10 6 6 5 5 6 5 9 9 14 15 11 10 9 8 7 6 6 6 5 4
2 3 2 2 0 3 7 7 6 5 5 7 7 8 7 8 7 7 7 6 5 5 4 6 8 8 6 7 8 7 8 8 8 10 14 14 11 6 8 6 6 6 5 5 4
3 5 3 2 5 3 6 7 8 6 5 6 5 6 7 7 8 8 8 6 5 5 7 5 7 10 9 6 5 6 7 8 11 12 10 11 11 5 5 5 5 5 4 4 4
6 5 3 2 7 6 7 8 8 7 7 7 7 6 6 8 9 7 7 5 5 5 7 6 9 12 11 8 6 8 7 7 7 9 12 14 12 6 5 5 4 4 4 4 4
6 8 6 5 6 8 9 9 9 8 8 8 8 7 7 7 6 8 7 5 5 5 6 6 8 10 12 10 8 10 8 7 8 12 11 10 9 7 6 6 5 4 4 4 4
7 8 9 9 9 9 9 9 10 10 8 8 9 8 9 11 9 8 7 6 5 4 5 6 10 9 8 7 7 8 8 8 9 9 11 9 9 7 8 7 6 5 4 4 4
8 10 8 8 9 10 11 9 11 11 11 11 11 10 10 11 10 11 9 8 9 6 7 6 11 9 10 8 8 9 8 8 8 8 8 8 8 5 4 5 5 4 4 4 4
6 6 8 11 10 11 11 12 12 11 10 10 10 11 12 11 9 9 9 9 9 9 9 9 10 11 13 9 9 12 9 8 7 7 7 9 7 5 5 5 4 4 4 4 3